This is the latest recevied weather packets stored in our database for station/object KD9JJA. If no packets are shown the sender has not sent any weather packets the latest 10 day(s).
| Time | Temp. | Humidity | Pressure | Rain* | Wind** | Luminosity | Snow |
|---|---|---|---|---|---|---|---|
| 1778190037 | 16.11° C | 54% | 1015.3 hPa | 0 mm | - | 36 W/m² | - |
| 1778189734 | 16.11° C | 48% | 1015.5 hPa | 0 mm | - | 35 W/m² | - |
| 1778189431 | 16.11° C | 44% | 1015.7 hPa | 0 mm | - | 42 W/m² | - |
| 1778189126 | 16.11° C | 45% | 1015.3 hPa | 0 mm | - | 43 W/m² | - |
| 1778188824 | 16.11° C | 48% | 1015.4 hPa | 0 mm | - | 52 W/m² | - |
| 1778188520 | 16.11° C | 56% | 1015.6 hPa | 0 mm | - | 70 W/m² | - |
| 1778188217 | 16.11° C | 44% | 1015.5 hPa | 0 mm | - | 40 W/m² | - |
| 1778187914 | 15.56° C | 46% | 1015.8 hPa | 0 mm | - | 45 W/m² | - |
| 1778187610 | 16.67° C | 49% | 1015.9 hPa | 0 mm | - | 35 W/m² | - |
| 1778187307 | 16.67° C | 49% | 1015.8 hPa | 0 mm | - | 43 W/m² | - |
| 1778187003 | 16.11° C | 46% | 1015.7 hPa | 0 mm | - | 241 W/m² | - |
| 1778186700 | 15.56° C | 45% | 1015.7 hPa | 0 mm | - | 41 W/m² | - |
| 1778186398 | 16.11° C | 46% | 1015.7 hPa | 0 mm | - | 103 W/m² | - |
| 1778186095 | 16.11° C | 41% | 1015.8 hPa | 0 mm | - | 50 W/m² | - |
| 1778185792 | 15.56° C | 52% | 1015.8 hPa | 0 mm | - | 77 W/m² | - |
| 1778185488 | 16.11° C | 50% | 1015.8 hPa | 0 mm | - | 58 W/m² | - |
| 1778185184 | 16.11° C | 43% | 1015.9 hPa | 0 mm | - | 55 W/m² | - |
| 1778184879 | 15.56° C | 43% | 1015.9 hPa | 0 mm | - | 109 W/m² | - |
| 1778184576 | 15.56° C | 50% | 1016.1 hPa | 0 mm | - | 91 W/m² | - |
| 1778184272 | 16.11° C | 50% | 1016.1 hPa | 0 mm | - | 47 W/m² | - |
| 1778183968 | 16.11° C | 51% | 1016.1 hPa | 0 mm | - | 144 W/m² | - |
| 1778183666 | 16.11° C | 43% | 1016.2 hPa | 0 mm | - | 370 W/m² | - |
| 1778183363 | 15.56° C | 42% | 1016.5 hPa | 0 mm | - | 165 W/m² | - |
| 1778183059 | 16.11° C | 47% | 1016.3 hPa | 0 mm | - | 128 W/m² | - |
| 1778182755 | 16.11° C | 49% | 1016.3 hPa | 0 mm | - | 327 W/m² | - |
* Rain latest hour (hover to see other rain measurements)
** Current wind speed in m/s (hover to see current wind gust speed)